Powrót do katalogu

CZ-6A DEB

AktywnyPO
NORAD 61487·DEBRIS·🇨🇳 China

Wystrzelony Aug 6, 2024 z Taiyuan Satellite Launch Center

Loading…

Następne Przeloty (najbliższe 24 godziny)

TLE

ŚwieżeSource: Space-Track

Epoka: Sep 14, 2026, 10:43 UTC

1 61487U 24140AAV 26257.44698320  .00001728  00000-0  69006-3 0  9997
2 61487  89.0047 264.5769 0033439 260.8311  98.9100 14.27805343104614

Śledź CZ-6A DEB w czasie rzeczywistym z AllMySat

Download on the App Store